Location: Millers Ferry
(32.0990°N, 87.3680°W)
Time: 09:53:15
(UTC-05:00)

CSL-04 Rocket - Visible Passes

Search period start: 25 May 2016 00:00
Search period end: 04 June 2016 00:00
Orbit: 806 x 861 km, 99.0° (Epoch: 24 May)

Date Brightness Start Highest point End Pass type
(mag) Time Alt. Az. Time Alt. Az. Time Alt. Az.
25 May 5.7 05:15:20 10° NE 05:19:49 28° E 05:24:19 10° SSE visible
26 May 6.2 04:59:11 10° NE 05:02:51 19° E 05:06:30 10° SE visible
27 May 6.5 04:43:46 10° ENE 04:45:50 12° E 04:47:53 10° ESE visible
31 May 5.8 05:14:26 10° NE 05:18:53 27° E 05:23:21 10° SSE visible
01 Jun 6.2 04:58:19 10° NE 05:01:55 18° E 05:05:31 10° SE visible
02 Jun 6.5 04:43:01 10° ENE 04:44:54 12° E 04:46:47 10° ESE visible
